| time (UTC) | temp C | wind direction | speed KPH | gust KPH | rain 1hr cm | rain 24hr cm | rain mn cm | humidity % | barometer mb |
| 20260510104004 | 12 | 355 | 0.0 | 4.8 | 0.00 | 0.00 | 0.00 | 79 | 1012.5 |
| 20260510103004 | 12 | 355 | 0.0 | 0.0 | 0.00 | 0.00 | 0.00 | 80 | 1012.1 |
| 20260510102004 | 12 | 355 | 1.6 | 4.8 | 0.00 | 0.00 | 0.00 | 79 | 1012.2 |
| 20260510101503 | 12 | 355 | 0.0 | 8.0 | 0.00 | 0.00 | 0.00 | 79 | 1012.1 |
| 20260510100004 | 12 | 349 | 3.2 | 4.8 | 0.00 | 0.00 | 0.00 | 78 | 1011.8 |
| 20260510093503 | 12 | 336 | 1.6 | 4.8 | 0.00 | 0.00 | 0.00 | 80 | 1011.2 |
| 20260510093004 | 12 | 331 | 1.6 | 8.0 | 0.00 | 0.00 | 0.00 | 81 | 1011.0 |
| 20260510092004 | 12 | 329 | 1.6 | 4.8 | 0.00 | 0.00 | 0.00 | 84 | 1010.7 |
| 20260510091004 | 12 | 334 | 3.2 | 9.7 | 0.00 | 0.00 | 0.00 | 85 | 1010.8 |
| 20260510090503 | 12 | 333 | 3.2 | 8.0 | 0.00 | 0.00 | 0.00 | 87 | 1010.9 |
| 20260510085003 | 13 | 259 | 1.6 | 4.8 | 0.00 | 0.03 | 0.00 | 86 | 1010.8 |
| 20260510084504 | 13 | 257 | 0.0 | 0.0 | 0.00 | 0.03 | 0.00 | 86 | 1010.9 |
| 20260510084004 | 13 | 257 | 0.0 | 3.2 | 0.00 | 0.03 | 0.00 | 85 | 1010.8 |
| 20260510083504 | 13 | 257 | 0.0 | 3.2 | 0.00 | 0.03 | 0.00 | 85 | 1010.8 |
| 20260510082004 | 13 | 257 | 0.0 | 0.0 | 0.00 | 0.03 | 0.00 | 82 | 1010.6 |
| 20260510081504 | 14 | 257 | 0.0 | 0.0 | 0.00 | 0.03 | 0.00 | 81 | 1010.6 |
| 20260510081004 | 14 | 257 | 0.0 | 0.0 | 0.00 | 0.03 | 0.00 | 80 | 1010.8 |
| 20260510080004 | 15 | 257 | 0.0 | 0.0 | 0.00 | 0.03 | 0.00 | 78 | 1011.0 |
| 20260510075504 | 15 | 257 | 0.0 | 0.0 | 0.00 | 0.03 | 0.00 | 77 | 1011.2 |
| 20260510075004 | 15 | 257 | 0.0 | 0.0 | 0.00 | 0.03 | 0.00 | 76 | 1011.4 |
| 20260510074003 | 15 | 257 | 0.0 | 4.8 | 0.00 | 0.03 | 0.00 | 75 | 1011.5 |
| 20260510072505 | 15 | 240 | 0.0 | 4.8 | 0.00 | 0.03 | 0.00 | 75 | 1011.7 |
| 20260510071504 | 15 | 230 | 1.6 | 8.0 | 0.00 | 0.03 | 0.00 | 74 | 1011.4 |
| 20260510071004 | 15 | 270 | 0.0 | 4.8 | 0.00 | 0.03 | 0.00 | 76 | 1011.2 |
| 20260510070004 | 15 | 278 | 0.0 | 4.8 | 0.00 | 0.03 | 0.00 | 80 | 1011.0 |
| 20260510064004 | 15 | 290 | 0.0 | 3.2 | 0.00 | 0.08 | 0.00 | 82 | 1010.7 |
| 20260510062504 | 15 | 304 | 1.6 | 4.8 | 0.00 | 0.15 | 0.00 | 83 | 1010.6 |
| 20260510062004 | 15 | 326 | 0.0 | 4.8 | 0.00 | 0.18 | 0.00 | 84 | 1010.5 |
| 20260510054504 | 16 | 335 | 0.0 | 0.0 | 0.00 | 0.38 | 0.00 | 81 | 1010.0 |
| 20260510053504 | 16 | 336 | 0.0 | 0.0 | 0.00 | 0.43 | 0.00 | 82 | 1009.8 |
| 20260510053004 | 16 | 336 | 0.0 | 0.0 | 0.00 | 0.43 | 0.00 | 80 | 1009.7 |
| 20260510052004 | 16 | 336 | 0.0 | 0.0 | 0.00 | 0.46 | 0.00 | 79 | 1009.6 |
| 20260510051004 | 16 | 336 | 0.0 | 0.0 | 0.00 | 0.48 | 0.00 | 79 | 1009.6 |
| 20260510044504 | 16 | 207 | 0.0 | 9.7 | 0.00 | 0.51 | 0.51 | 78 | 1009.3 |
| 20260510044004 | 16 | 333 | 3.2 | 9.7 | 0.00 | 0.51 | 0.51 | 78 | 1009.4 |
| 20260510043004 | 16 | 206 | 3.2 | 8.0 | 0.00 | 0.51 | 0.51 | 75 | 1009.1 |
| 20260510041504 | 16 | 206 | 1.6 | 9.7 | 0.00 | 0.51 | 0.51 | 75 | 1009.1 |
| 20260510040504 | 16 | 205 | 4.8 | 9.7 | 0.00 | 0.51 | 0.51 | 75 | 1009.2 |
| 20260510040004 | 16 | 205 | 4.8 | 9.7 | 0.00 | 0.51 | 0.51 | 76 | 1009.2 |
| 20260510034504 | 16 | 205 | 4.8 | 9.7 | 0.00 | 0.51 | 0.51 | 74 | 1009.2 |
| 20260510034004 | 16 | 205 | 6.4 | 8.0 | 0.00 | 0.53 | 0.51 | 74 | 1009.2 |
| 20260510033504 | 16 | 205 | 4.8 | 9.7 | 0.00 | 0.53 | 0.51 | 74 | 1009.1 |
| 20260510032504 | 16 | 205 | 4.8 | 9.7 | 0.00 | 0.53 | 0.51 | 73 | 1009.0 |
| 20260510030504 | 16 | 200 | 0.0 | 4.8 | 0.00 | 0.58 | 0.51 | 74 | 1009.1 |
| 20260510025004 | 16 | 200 | 4.8 | 8.0 | 0.00 | 0.61 | 0.51 | 77 | 1009.1 |
| 20260510024504 | 16 | 200 | 4.8 | 8.0 | 0.00 | 0.61 | 0.51 | 75 | 1009.1 |
| 20260510024003 | 16 | 200 | 3.2 | 8.0 | 0.00 | 0.61 | 0.51 | 75 | 1008.9 |
| 20260510023004 | 16 | 200 | 4.8 | 8.0 | 0.00 | 0.64 | 0.51 | 75 | 1008.9 |
| 20260510022504 | 16 | 200 | 4.8 | 8.0 | 0.00 | 0.64 | 0.51 | 74 | 1008.8 |
| 20260510020004 | 17 | 200 | 0.0 | 3.2 | 0.00 | 0.69 | 0.51 | 74 | 1008.5 |
| 20260510015504 | 17 | 200 | 0.0 | 3.2 | 0.00 | 0.69 | 0.51 | 72 | 1008.3 |
| 20260510012004 | 18 | 200 | 0.0 | 4.8 | 0.00 | 0.71 | 0.51 | 68 | 1007.7 |
| 20260510011504 | 18 | 200 | 1.6 | 4.8 | 0.00 | 0.71 | 0.51 | 66 | 1007.7 |
| 20260510010004 | 19 | 200 | 0.0 | 3.2 | 0.00 | 0.74 | 0.51 | 64 | 1007.5 |
| 20260510005504 | 19 | 200 | 0.0 | 4.8 | 0.00 | 0.74 | 0.51 | 63 | 1007.5 |
| 20260510004504 | 20 | 200 | 3.2 | 4.8 | 0.00 | 0.76 | 0.51 | 62 | 1007.4 |
| 20260510004004 | 20 | 200 | 1.6 | 4.8 | 0.00 | 0.79 | 0.51 | 62 | 1007.4 |
| 20260510003503 | 20 | 200 | 0.0 | 4.8 | 0.00 | 0.79 | 0.51 | 62 | 1007.4 |
| 20260510001504 | 21 | 200 | 1.6 | 9.7 | 0.00 | 0.81 | 0.51 | 59 | 1007.3 |
| 20260510000004 | 21 | 211 | 3.2 | 9.7 | 0.00 | 0.89 | 0.51 | 58 | 1007.0 |
| 20260509235504 | 21 | 205 | 3.2 | 8.0 | 0.00 | 0.89 | 0.51 | 58 | 1007.0 |
| 20260509234503 | 22 | 246 | 4.8 | 11.3 | 0.00 | 0.89 | 0.51 | 62 | 1007.0 |
| 20260509234004 | 22 | 197 | 1.6 | 4.8 | 0.00 | 0.89 | 0.51 | 61 | 1007.0 |
| 20260509232504 | 22 | 218 | 3.2 | 12.9 | 0.00 | 0.91 | 0.51 | 61 | 1006.9 |
| 20260509225004 | 22 | 233 | 4.8 | 19.3 | 0.00 | 0.94 | 0.51 | 59 | 1006.9 |
| 20260509224503 | 23 | 201 | 8.0 | 14.5 | 0.00 | 0.94 | 0.51 | 59 | 1006.9 |
| 20260509223504 | 23 | 205 | 6.4 | 11.3 | 0.00 | 0.97 | 0.51 | 59 | 1006.8 |
| 20260509223003 | 22 | 202 | 8.0 | 14.5 | 0.00 | 0.99 | 0.51 | 58 | 1006.7 |
| 20260509222004 | 22 | 223 | 4.8 | 20.9 | 0.00 | 1.07 | 0.51 | 56 | 1006.7 |
| 20260509221504 | 22 | 209 | 11.3 | 20.9 | 0.00 | 1.07 | 0.51 | 55 | 1006.7 |
| 20260509220503 | 22 | 207 | 6.4 | 12.9 | 0.00 | 1.07 | 0.51 | 57 | 1006.8 |
| 20260509220003 | 22 | 226 | 4.8 | 11.3 | 0.00 | 1.07 | 0.51 | 56 | 1006.7 |
| 20260509214504 | 22 | 213 | 11.3 | 19.3 | 0.00 | 1.07 | 0.51 | 56 | 1006.8 |
| 20260509213504 | 22 | 229 | 8.0 | 19.3 | 0.00 | 1.07 | 0.51 | 53 | 1006.7 |
| 20260509213004 | 22 | 231 | 4.8 | 19.3 | 0.00 | 1.07 | 0.51 | 57 | 1006.8 |
| 20260509212004 | 22 | 214 | 8.0 | 16.1 | 0.00 | 1.07 | 0.51 | 58 | 1006.7 |
| 20260509211504 | 23 | 209 | 6.4 | 19.3 | 0.00 | 1.07 | 0.51 | 57 | 1006.7 |
| 20260509211003 | 23 | 221 | 8.0 | 19.3 | 0.00 | 1.07 | 0.51 | 58 | 1006.7 |
| 20260509210503 | 23 | 203 | 4.8 | 19.3 | 0.00 | 1.07 | 0.51 | 57 | 1006.7 |
| 20260509205503 | 23 | 242 | 9.7 | 19.3 | 0.00 | 1.09 | 0.51 | 55 | 1006.7 |
| 20260509204504 | 23 | 243 | 6.4 | 19.3 | 0.00 | 1.09 | 0.51 | 59 | 1006.7 |
| 20260509204004 | 23 | 220 | 4.8 | 16.1 | 0.00 | 1.09 | 0.51 | 56 | 1006.8 |
| 20260509203004 | 23 | 217 | 9.7 | 19.3 | 0.00 | 1.12 | 0.51 | 59 | 1006.6 |
| 20260509200504 | 23 | 206 | 16.1 | 32.2 | 0.00 | 1.12 | 0.51 | 60 | 1006.7 |
| 20260509195503 | 23 | 236 | 9.7 | 16.1 | 0.00 | 1.12 | 0.51 | 59 | 1006.8 |
| 20260509193504 | 22 | 202 | 11.3 | 27.4 | 0.00 | 1.12 | 0.51 | 60 | 1007.0 |
| 20260509193004 | 22 | 209 | 14.5 | 27.4 | 0.00 | 1.12 | 0.51 | 64 | 1007.0 |
| 20260509191004 | 21 | 198 | 11.3 | 24.1 | 0.00 | 1.12 | 0.51 | 67 | 1006.9 |
| 20260509190504 | 21 | 185 | 11.3 | 24.1 | 0.00 | 1.12 | 0.51 | 69 | 1007.1 |
| 20260509183505 | 20 | 206 | 11.3 | 20.9 | 0.00 | 1.12 | 0.51 | 70 | 1007.3 |
| 20260509183005 | 20 | 181 | 11.3 | 24.1 | 0.00 | 1.12 | 0.51 | 72 | 1007.3 |
| 20260509181504 | 20 | 203 | 14.5 | 22.5 | 0.00 | 1.12 | 0.51 | 73 | 1007.4 |
| 20260509181004 | 20 | 181 | 14.5 | 22.5 | 0.00 | 1.12 | 0.51 | 75 | 1007.4 |
| 20260509175004 | 19 | 206 | 11.3 | 22.5 | 0.00 | 1.12 | 0.51 | 73 | 1007.5 |
| 20260509174504 | 19 | 183 | 9.7 | 27.4 | 0.00 | 1.12 | 0.51 | 75 | 1007.5 |
| 20260509174004 | 19 | 199 | 14.5 | 27.4 | 0.00 | 1.12 | 0.51 | 77 | 1007.5 |
| 20260509173504 | 19 | 199 | 11.3 | 27.4 | 0.00 | 1.12 | 0.51 | 76 | 1007.5 |
| 20260509172504 | 19 | 185 | 8.0 | 27.4 | 0.00 | 1.12 | 0.51 | 76 | 1007.7 |
| 20260509172004 | 18 | 166 | 11.3 | 27.4 | 0.00 | 1.12 | 0.51 | 76 | 1007.8 |
| 20260509171504 | 18 | 197 | 14.5 | 25.7 | 0.00 | 1.12 | 0.51 | 77 | 1007.9 |
| 20260509170504 | 18 | 199 | 14.5 | 25.7 | 0.00 | 1.12 | 0.51 | 77 | 1008.0 |
| 20260509170004 | 18 | 211 | 9.7 | 24.1 | 0.00 | 1.12 | 0.51 | 78 | 1007.9 |
| 20260509165004 | 18 | 204 | 11.3 | 24.1 | 0.00 | 1.12 | 0.51 | 79 | 1008.0 |
| 20260509164504 | 18 | 208 | 9.7 | 24.1 | 0.00 | 1.12 | 0.51 | 80 | 1008.1 |
| 20260509162003 | 17 | 182 | 9.7 | 20.9 | 0.00 | 1.12 | 0.51 | 79 | 1008.0 |
| 20260509161504 | 17 | 190 | 9.7 | 20.9 | 0.00 | 1.12 | 0.51 | 81 | 1008.0 |
| 20260509160504 | 17 | 186 | 11.3 | 32.2 | 0.00 | 1.12 | 0.51 | 83 | 1008.1 |
| 20260509160004 | 16 | 206 | 11.3 | 32.2 | 0.00 | 1.12 | 0.51 | 83 | 1008.2 |
| 20260509155004 | 16 | 189 | 8.0 | 22.5 | 0.00 | 1.12 | 0.51 | 85 | 1008.0 |
| 20260509153504 | 16 | 192 | 11.3 | 20.9 | 0.00 | 1.12 | 0.51 | 87 | 1007.9 |
| 20260509152004 | 15 | 204 | 14.5 | 20.9 | 0.00 | 1.12 | 0.51 | 89 | 1007.9 |
| 20260509151504 | 15 | 196 | 9.7 | 22.5 | 0.00 | 1.12 | 0.51 | 87 | 1007.8 |
| 20260509151004 | 16 | 212 | 9.7 | 22.5 | 0.00 | 1.12 | 0.51 | 90 | 1007.7 |
| 20260509150504 | 15 | 201 | 11.3 | 22.5 | 0.00 | 1.12 | 0.51 | 90 | 1007.6 |
| 20260509150003 | 15 | 208 | 11.3 | 19.3 | 0.00 | 1.12 | 0.51 | 92 | 1007.7 |
| 20260509145504 | 15 | 205 | 8.0 | 14.5 | 0.00 | 1.12 | 0.51 | 92 | 1007.7 |
| 20260509144503 | 15 | 196 | 8.0 | 22.5 | 0.00 | 1.12 | 0.51 | 94 | 1007.7 |
| 20260509144003 | 15 | 207 | 9.7 | 16.1 | 0.00 | 1.12 | 0.51 | 95 | 1007.7 |
| 20260509143503 | 14 | 190 | 9.7 | 16.1 | 0.00 | 1.12 | 0.51 | 95 | 1007.7 |
| 20260509143004 | 14 | 199 | 8.0 | 12.9 | 0.00 | 1.12 | 0.51 | 96 | 1007.7 |
| 20260509142503 | 14 | 208 | 8.0 | 14.5 | 0.00 | 1.12 | 0.51 | 97 | 1007.7 |
| 20260509142004 | 14 | 201 | 8.0 | 14.5 | 0.00 | 1.12 | 0.51 | 97 | 1007.7 |
| 20260509141504 | 14 | 207 | 9.7 | 12.9 | 0.00 | 1.12 | 0.51 | 97 | 1007.7 |
| 20260509141004 | 14 | 220 | 8.0 | 19.3 | 0.00 | 1.12 | 0.51 | 97 | 1007.8 |
| 20260509140004 | 13 | 204 | 9.7 | 16.1 | 0.00 | 1.12 | 0.51 | 97 | 1007.8 |
| 20260509135503 | 13 | 210 | 9.7 | 16.1 | 0.00 | 1.12 | 0.51 | 97 | 1007.8 |
| 20260509134504 | 13 | 213 | 8.0 | 11.3 | 0.00 | 1.12 | 0.51 | 97 | 1007.8 |
| 20260509132504 | 13 | 254 | 4.8 | 11.3 | 0.00 | 1.12 | 0.51 | 97 | 1007.7 |
| 20260509131504 | 13 | 207 | 8.0 | 14.5 | 0.00 | 1.12 | 0.51 | 97 | 1007.6 |
| 20260509131004 | 12 | 205 | 9.7 | 14.5 | 0.00 | 1.12 | 0.51 | 97 | 1007.7 |
| 20260509130503 | 12 | 196 | 6.4 | 12.9 | 0.00 | 1.12 | 0.51 | 97 | 1007.8 |
| 20260509130004 | 12 | 208 | 8.0 | 12.9 | 0.00 | 1.12 | 0.51 | 97 | 1007.9 |
| 20260509125504 | 12 | 202 | 4.8 | 12.9 | 0.00 | 1.12 | 0.51 | 97 | 1008.0 |
| 20260509124004 | 12 | 207 | 9.7 | 16.1 | 0.00 | 1.12 | 0.51 | 97 | 1008.0 |
| 20260509123503 | 12 | 205 | 9.7 | 16.1 | 0.00 | 1.12 | 0.51 | 97 | 1008.0 |
| 20260509122004 | 12 | 203 | 6.4 | 16.1 | 0.00 | 1.12 | 0.51 | 97 | 1008.0 |
| 20260509120004 | 11 | 209 | 1.6 | 11.3 | 0.00 | 1.12 | 0.51 | 97 | 1007.8 |
| 20260509112004 | 11 | 211 | 6.4 | 11.3 | 0.00 | 1.12 | 0.51 | 97 | 1007.3 |
| 20260509110004 | 11 | 186 | 1.6 | 4.8 | 0.00 | 1.12 | 0.51 | 97 | 1006.9 |